Simultaneous Nadir Overpasses (SNOs) Predictions

Prediction of SNOs between METOP-A and NOAA-19 Satellite Orbit:

Table of predicted SNOs for the next 14.0 days since TLE Epoch: 1/11/2015
Index Date (METOP-A) Time (METOP-A) Lat,Lon (METOP-A) SZA (METOP-A ) Date (NOAA-19) Time (NOAA-19) Lat,Lon (NOAA-19) SZA (NOAA-19 ) Distance(km) Time Diff (sec)
1 01/21/2015 06:40:08 74.62, 76.21 94.58 01/21/2015 06:38:57 74.60, 76.15 94.57 2.97 71
2 01/21/2015 07:30:50 -74.59,-116.53 85.45 01/21/2015 07:29:55 -74.61,-116.62 85.43 3.36 55
3 01/21/2015 08:21:31 74.54, 50.68 94.50 01/21/2015 08:20:59 74.55, 50.77 94.50 2.89 32
4 01/21/2015 09:12:12 -74.57,-141.93 85.49 01/21/2015 09:11:57 -74.56,-142.00 85.50 2.25 15
5 01/21/2015 10:02:53 74.52, 25.27 94.46 01/21/2015 10:03:02 74.55, 25.27 94.49 2.95 9
6 01/21/2015 10:53:35 -74.49,-167.46 85.58 01/21/2015 10:53:59 -74.51,-167.38 85.56 3.15 24
7 01/21/2015 11:44:15 74.49, -0.13 94.42 01/21/2015 11:45:04 74.50, -0.11 94.42 0.76 49
8 01/21/2015 12:34:57 -74.47, 167.13 85.61 01/21/2015 12:36:01 -74.46, 167.25 85.63 3.52 64
9 01/21/2015 13:25:49 73.88, -27.02 93.84 01/21/2015 13:26:55 73.92, -24.10 93.78 90.33 66




NCC Satellite Simultaneous Nadir Overpasses (SNOs) Prediction Service
